Madison, MN

11:12 AM CDT on July 27, 2017 (GMT -0500)
Madison-Lac Qui Parle County

Weather History for KDXX - April, 2013

Change the Weather History Date:

Sunday, April 7, 2013

  Actual Average (KAQP) Record (KAQP)
Temperature  
Mean Temperature 36 °F -  
Max Temperature 42 °F 48 °F 116 °F (1999)
Min Temperature 30 °F 28 °F 10 °F (1997)
Degree Days  
Heating Degree Days 29    
Moisture  
Dew Point 32 °F    
Average Humidity 84    
Maximum Humidity 93    
Minimum Humidity 70    
Precipitation  
Precipitation 0.11 in - - ()
Sea Level Pressure  
Sea Level Pressure 29.83 in    
Wind  
Wind Speed 8 mph (ENE)    
Max Wind Speed 13 mph    
Max Gust Speed 16 mph    
Visibility 8 miles    
Events Rain    
Averages and records for this station are not official NWS values.
T = Trace of Precipitation, MM = Missing Value Source: NWS Daily Summary

Daily Weather History Graph

Daily Weather History Graph

Search for Another Location

Airport or City:

Trip Planner

Search our weather history database for the weather conditions in past years. The results will help you decide how hot, cold, wet, or windy it might be!

Date:

Astronomy

Apr. 07, 2013 Rise Set
Actual Time 6:53 AM CDT 8:00 PM CDT
Civil Twilight 6:23 AM CDT 8:30 PM CDT
Nautical Twilight 5:47 AM CDT 9:06 PM CDT
Astronomical Twilight 5:09 AM CDT 9:44 PM CDT
Moon 5:18 AM CDT (4/7) 5:28 PM CDT (4/7)
Length of Visible Light 14h 06m
Length of Day
13h 06m
Waning Crescent, 8% of the Moon is Illuminated
Apr 7
Waning Crescent
Apr 10
New
Apr 18
First Quarter
Apr 25
Full
May 2
Last Quarter

Hourly Weather History & Observations

Time (CDT) Temp. Windchill Dew Point Humidity Pressure Visibility Wind Dir Wind Speed Gust Speed Precip Events Conditions
12:14 AM 33.8 °F 27.0 °F 30.2 °F 87% 29.84 in 10.0 mi NW 8.1 mph - N/A   Mostly Cloudy
12:33 AM 33.8 °F 24.8 °F 28.4 °F 81% 29.84 in 10.0 mi NNW 12.7 mph - N/A   Mostly Cloudy
12:53 AM 33.8 °F 26.4 °F 28.4 °F 81% 29.84 in 10.0 mi NNW 9.2 mph - N/A   Scattered Clouds
1:14 AM 33.8 °F 25.3 °F 30.2 °F 87% 29.84 in 7.0 mi NNW 11.5 mph 16.1 mph N/A   Scattered Clouds
1:33 AM 33.8 °F 25.8 °F 30.2 °F 87% 29.85 in 10.0 mi NNW 10.4 mph - N/A   Mostly Cloudy
1:54 AM 33.8 °F 25.3 °F 28.4 °F 81% 29.85 in 10.0 mi NNW 11.5 mph - N/A   Overcast
2:14 AM 33.8 °F 27.0 °F 28.4 °F 81% 29.84 in 10.0 mi NNW 8.1 mph - N/A   Overcast
2:33 AM 33.8 °F 27.0 °F 28.4 °F 81% 29.85 in 10.0 mi NNW 8.1 mph - N/A   Overcast
2:54 AM 33.8 °F 25.8 °F 28.4 °F 81% 29.85 in 10.0 mi North 10.4 mph - N/A   Overcast
3:14 AM 32.0 °F 23.6 °F 28.4 °F 87% 29.85 in 10.0 mi North 10.4 mph - N/A   Overcast
3:33 AM 32.0 °F 25.6 °F 28.4 °F 87% 29.86 in 10.0 mi NNW 6.9 mph 10.4 mph N/A   Overcast
3:54 AM 32.0 °F 24.2 °F 28.4 °F 87% 29.86 in 10.0 mi North 9.2 mph - N/A   Overcast
4:14 AM 32.0 °F 23.6 °F 28.4 °F 87% 29.87 in 10.0 mi NNW 10.4 mph - N/A   Overcast
4:33 AM 32.0 °F 23.6 °F 28.4 °F 87% 29.88 in 10.0 mi NNW 10.4 mph - N/A   Overcast
4:54 AM 32.0 °F 24.2 °F 28.4 °F 87% 29.88 in 10.0 mi North 9.2 mph - N/A   Overcast
5:14 AM 32.0 °F 24.8 °F 28.4 °F 87% 29.88 in 10.0 mi NNW 8.1 mph - N/A   Overcast
5:33 AM 32.0 °F 24.8 °F 28.4 °F 87% 29.88 in 10.0 mi NNW 8.1 mph - N/A   Overcast
5:54 AM 32.0 °F 24.8 °F 28.4 °F 87% 29.88 in 10.0 mi NNW 8.1 mph - N/A   Overcast
6:13 AM 30.2 °F 22.6 °F 28.4 °F 93% 29.89 in 10.0 mi NNW 8.1 mph - N/A   Overcast
6:33 AM 32.0 °F 26.4 °F 28.4 °F 87% 29.89 in 10.0 mi North 5.8 mph - N/A   Overcast
6:54 AM 30.2 °F 24.3 °F 28.4 °F 93% 29.89 in 10.0 mi North 5.8 mph - N/A   Overcast
7:13 AM 32.0 °F 26.4 °F 28.4 °F 87% 29.90 in 10.0 mi NW 5.8 mph - N/A   Overcast
7:33 AM 32.0 °F 27.5 °F 28.4 °F 87% 29.90 in 10.0 mi WNW 4.6 mph - N/A   Overcast
7:54 AM 32.0 °F 27.5 °F 28.4 °F 87% 29.91 in 10.0 mi WNW 4.6 mph - N/A   Overcast
8:13 AM 32.0 °F 28.7 °F 28.4 °F 87% 29.91 in 10.0 mi WNW 3.5 mph - N/A   Overcast
8:33 AM 32.0 °F - 28.4 °F 87% 29.91 in 10.0 mi Calm Calm - N/A   Overcast
8:54 AM 33.8 °F 30.8 °F 28.4 °F 81% 29.91 in 10.0 mi West 3.5 mph - N/A   Overcast
9:13 AM 33.8 °F - 28.4 °F 81% 29.91 in 10.0 mi Calm Calm - N/A   Overcast
9:34 AM 33.8 °F - 28.4 °F 81% 29.92 in 10.0 mi Calm Calm - N/A   Mostly Cloudy
9:53 AM 33.8 °F - 26.6 °F 75% 29.91 in 10.0 mi Calm Calm - N/A   Overcast
10:14 AM 33.8 °F - 28.4 °F 81% 29.91 in 10.0 mi Calm Calm - N/A   Overcast
10:34 AM 33.8 °F - 28.4 °F 81% 29.90 in 10.0 mi Calm Calm - N/A   Overcast
10:53 AM 33.8 °F - 28.4 °F 81% 29.91 in 10.0 mi Calm Calm - N/A   Overcast
11:14 AM 33.8 °F 29.6 °F 28.4 °F 81% 29.90 in 10.0 mi SE 4.6 mph - N/A   Overcast
11:34 AM 35.6 °F 31.7 °F 28.4 °F 75% 29.90 in 10.0 mi SE 4.6 mph - N/A   Mostly Cloudy
11:53 AM 35.6 °F 31.7 °F 28.4 °F 75% 29.90 in 10.0 mi SE 4.6 mph - N/A   Mostly Cloudy
12:14 PM 35.6 °F 28.6 °F 28.4 °F 75% 29.89 in 10.0 mi SE 9.2 mph - N/A   Mostly Cloudy
12:34 PM 35.6 °F 29.2 °F 28.4 °F 75% 29.88 in 10.0 mi ESE 8.1 mph - N/A   Mostly Cloudy
12:53 PM 35.6 °F 29.9 °F 30.2 °F 81% 29.87 in 10.0 mi SE 6.9 mph - N/A   Mostly Cloudy
1:14 PM 37.4 °F 30.8 °F 30.2 °F 75% 29.86 in 10.0 mi ESE 9.2 mph - N/A   Scattered Clouds
1:34 PM 37.4 °F 31.4 °F 30.2 °F 75% 29.85 in 10.0 mi ESE 8.1 mph - N/A   Mostly Cloudy
1:53 PM 37.4 °F 30.8 °F 30.2 °F 75% 29.84 in 10.0 mi SE 9.2 mph - N/A   Mostly Cloudy
2:14 PM 37.4 °F 31.4 °F 30.2 °F 75% 29.83 in 10.0 mi ESE 8.1 mph - N/A   Scattered Clouds
2:33 PM 37.4 °F 31.4 °F 30.2 °F 75% 29.82 in 10.0 mi ESE 8.1 mph - N/A   Scattered Clouds
2:53 PM 39.2 °F 33.0 °F 32.0 °F 75% 29.82 in 10.0 mi SE 9.2 mph - N/A   Scattered Clouds
3:14 PM 39.2 °F 33.0 °F 32.0 °F 75% 29.82 in 10.0 mi SE 9.2 mph - N/A   Mostly Cloudy
3:33 PM 39.2 °F 32.5 °F 32.0 °F 75% 29.81 in 10.0 mi SE 10.4 mph - N/A   Scattered Clouds
3:54 PM 41.0 °F 34.7 °F 33.8 °F 76% 29.81 in 10.0 mi SSE 10.4 mph - N/A   Scattered Clouds
4:14 PM 41.0 °F 33.9 °F 33.8 °F 76% 29.80 in 10.0 mi South 12.7 mph - N/A   Mostly Cloudy
4:33 PM 41.0 °F 33.9 °F 33.8 °F 76% 29.79 in 10.0 mi SSE 12.7 mph - N/A   Scattered Clouds
4:54 PM 42.8 °F 37.0 °F 33.8 °F 70% 29.77 in 10.0 mi SE 10.4 mph - N/A   Clear
5:14 PM 42.8 °F 37.0 °F 35.6 °F 76% 29.77 in 10.0 mi SSE 10.4 mph - N/A   Clear
5:33 PM 42.8 °F 38.6 °F 35.6 °F 76% 29.78 in 10.0 mi SE 6.9 mph - N/A   Light Drizzle
5:54 PM 42.8 °F 38.6 °F 37.4 °F 81% 29.78 in 7.0 mi SSE 6.9 mph - N/A Rain Light Rain
6:14 PM 42.8 °F 38.6 °F 37.4 °F 81% 29.77 in 5.0 mi ESE 6.9 mph - 0.01 in Rain Rain
6:33 PM 42.8 °F 38.0 °F 39.2 °F 87% 29.76 in 3.0 mi ESE 8.1 mph - 0.02 in Rain Light Rain
6:54 PM 42.8 °F 38.0 °F 39.2 °F 87% 29.76 in 4.0 mi ESE 8.1 mph - 0.03 in Rain Light Rain
7:14 PM 42.8 °F 37.5 °F 39.2 °F 87% 29.75 in 3.0 mi ESE 9.2 mph - 0.01 in Rain Light Rain
7:33 PM 41.0 °F 35.2 °F 39.2 °F 93% 29.75 in 4.0 mi ESE 9.2 mph - 0.01 in Rain Light Rain
7:54 PM 41.0 °F 35.8 °F 39.2 °F 93% 29.75 in 4.0 mi ESE 8.1 mph - 0.03 in Rain Light Rain
8:14 PM 41.0 °F 35.8 °F 39.2 °F 93% 29.74 in 4.0 mi ESE 8.1 mph - 0.02 in Rain Light Rain
8:33 PM 41.0 °F 35.8 °F 39.2 °F 93% 29.73 in 2.5 mi ESE 8.1 mph - 0.04 in Rain Light Rain
8:54 PM 41.0 °F 37.1 °F 39.2 °F 93% 29.72 in 2.5 mi East 5.8 mph - 0.05 in Rain Light Rain
9:13 PM 41.0 °F 37.1 °F 39.2 °F 93% 29.73 in 2.5 mi East 5.8 mph - N/A Rain Rain
9:34 PM 41.0 °F 36.4 °F 39.2 °F 93% 29.73 in 2.0 mi East 6.9 mph - N/A   Light Drizzle
9:53 PM 42.8 °F 39.3 °F 39.2 °F 87% 29.72 in 2.0 mi East 5.8 mph - N/A   Mist
10:13 PM 41.0 °F 37.1 °F 39.2 °F 93% 29.72 in 1.8 mi ENE 5.8 mph - N/A   Mist
10:34 PM 41.0 °F 37.1 °F 39.2 °F 93% 29.72 in 1.8 mi East 5.8 mph - N/A   Mist
10:53 PM 41.0 °F 38.0 °F 39.2 °F 93% 29.71 in 1.5 mi East 4.6 mph - N/A   Mist
11:13 PM 41.0 °F 38.0 °F 39.2 °F 93% 29.71 in 1.2 mi ENE 4.6 mph - N/A   Mist
11:34 PM 41.0 °F 38.0 °F 39.2 °F 93% 29.70 in 1.5 mi ENE 4.6 mph - N/A   Mist
11:53 PM 41.0 °F 38.0 °F 39.2 °F 93% 29.70 in 1.5 mi East 4.6 mph - N/A   Mist